sat.trackr.live / text

‹ back to catalog

STARLINK-2563

NORAD 48410 · 2021-038BK

PAYLOAD ACTIVE UNKNOWN

§ Identity

Operator
Country
US
Launch date
2021-05-04
Launch site
AFETR
Launch vehicle
Mass (kg)
RCS (m²)

Purposes: comms

External: N2YO · Heavens-Above · Gunter

§ Orbital elements

Epoch: 2026-05-24T22:02:41.748000Z

Period
94.01 min
Inclination
53.1596°
Eccentricity
0.0000784
Mean motion
15.31722896 rev/d
Perigee alt
470.1 km
Apogee alt
471.2 km
Semi-major
6,848.8 km
B*
4.9470e-5
RAAN
302.0311°
Arg perigee
79.9255°
Mean anomaly
280.1835°
Rev number
27,962

§ Raw data

STARLINK-25631 48410U 21038BK  26144.91853875  .00001172  00000+0  49470-4 0  99922 48410  53.1596 302.0311 0000784  79.9255 280.1835 15.31722896279621

JSON: /api/v1/satellites/48410 · /tle

For live sub-satellite position, see the globe view (requires WebGL).

§ Visibility from observer

Set your observer location to see the next 7 days of passes ≥ 10°. The values pass through the URL so the page stays shareable.

No JS? Fill the form by hand. The geolocation button needs JavaScript.